Flag for Germany Weather past 2 weeks in Ahlen, North Rhine-Westphalia, Germany

Now
57 °F

Clear.


Feels Like: 56 °F
Forecast: 63 / 91 °F
Wind: 7 mph from South

Location: Dortmund / Wickede

Current Time: Aug 5, 2015 at 2:33:29 AM

Latest Report: Aug 4, 2015 at 10:50 PM


Visibility: 10 mi

Pressure: 30.07 "Hg

Humidity: 82%

Dew point: 52 °F

Location of AhlenLocation

Historic Weather in Ahlen — Graph

°F

Ahlen temperature yesterday

Maximum temperature yesterday: 81 °F (at 10:20 AM)
Minimum temperature yesterday: 57 °F (at 9:50 PM)
Average temperature yesterday: 68 °F

Past Weeks' High & Low Weather Summary

 TemperatureHumidityPressure
High88 °F (Aug 3, 3:20 PM)88% (Jul 20, 10:20 PM)30.15 "Hg (Jul 20, 10:20 PM)
Low45 °F (Jul 31, 5:20 AM)21% (Aug 3, 3:50 PM)29.50 "Hg (Jul 25, 7:50 AM)
Average65 °F61%29.89 "Hg
* Reported Jul 20 10:20 PM — Aug 4 10:50 PM, Ahlen, Weather by CustomWeather, © 2015

Note: Actual official high and low records may vary slightly from our data, if they occured in-between our weather recording intervals... More about our weather records

Advertising

Ahlen weather history for previous 24 hours

 ConditionsComfort  
Time TempWeatherWind HumidityBarometerVisibility
10:50 PM
Tue, Aug 4
57 °FClear.7 mph82%30.07 "Hg10 mi
10:20 PM57 °FClear.7 mph82%30.07 "Hg10 mi
9:50 PM57 °FSunny.7 mph82%30.04 "Hg10 mi
9:20 PM59 °FSunny.8 mph82%30.04 "Hg10 mi
8:50 PM59 °FSunny.8 mph82%30.04 "Hg10 mi
8:20 PM61 °FSunny.7 mph77%30.04 "Hg10 mi
7:50 PM63 °FSunny.8 mph77%30.04 "Hg10 mi
7:20 PM63 °FMild.9 mph77%30.01 "HgN/A
6:50 PM63 °FPassing clouds.7 mph83%30.01 "HgN/A
6:20 PM63 °FScattered clouds.9 mph83%30.01 "HgN/A
5:50 PM63 °FLight rain. Partly sunny.9 mph88%29.98 "Hg4 mi
5:20 PM63 °FLight rain. Partly sunny.12 mph83%29.98 "Hg3 mi
4:50 PM63 °FPartly sunny.12 mph88%29.98 "HgN/A
4:20 PM66 °FPartly sunny.8 mph83%29.95 "Hg6 mi
3:50 PM66 °FPartly sunny.8 mph83%29.95 "HgN/A
3:20 PM66 °FLight rain. Broken clouds.9 mph83%29.95 "HgN/A
2:54 PM66 °FRain. Partly sunny.8 mph83%29.92 "Hg2 mi
2:20 PM66 °FScattered showers. Scattered clouds.6 mph83%29.92 "HgN/A
1:50 PM66 °FLight rain. Scattered clouds.7 mph83%29.92 "HgN/A
1:20 PM66 °FLight rain. Scattered clouds.7 mph83%29.92 "HgN/A
12:50 PM66 °FSprinkles. Clear.8 mph78%29.92 "HgN/A
12:20 PM70 °FSprinkles. Clear.14 mph64%29.92 "HgN/A
11:50 AM72 °FSprinkles. Partly sunny.14 mph53%29.92 "HgN/A
11:20 AM75 °FPassing clouds.13 mph47%29.89 "HgN/A
10:50 AM81 °FPassing clouds.9 mph37%29.86 "HgN/A
10:20 AM81 °FSunny.3 mph42%29.86 "Hg10 mi
9:50 AM79 °FSunny.2 mph42%29.86 "Hg10 mi
9:20 AM79 °FSunny.1 mph42%29.86 "Hg10 mi
8:50 AM77 °FSunny.3 mph42%29.86 "Hg10 mi
8:20 AM73 °FMild.10 mph47%29.86 "HgN/A
7:50 AM77 °FPassing clouds.8 mph36%29.83 "HgN/A
7:20 AM75 °FSunny.8 mph39%29.83 "Hg10 mi
6:50 AM72 °FClear.7 mph47%29.80 "Hg10 mi
6:20 AM70 °FClear.7 mph46%29.83 "Hg10 mi
5:50 AM70 °FClear.9 mph50%29.83 "Hg10 mi
5:20 AM70 °FClear.7 mph50%29.83 "Hg10 mi
Weather by CustomWeather, © 2015

See weather overviewHow to use our weather pages